FW9451 Weather Reports


Display with metric or nautical units.
time (UTC)temp
F
wind
direction
speed
MPH
gust
MPH
rain 1hr
in
rain 24hr
in
rain mn
in
humidity
%
barometer
mb
20260903100059 60 155 0.0 2.0 0.08 0.11 0.11 94 1017.8
20260903094605 60 132 0.0 5.0 0.09 0.11 0.11 94 1017.8
20260903093107 60 0 0.0 1.0 0.09 0.11 0.11 94 1018.2
20260903091600 60 0 0.0 2.0 0.08 0.10 0.10 94 1018.5
20260903090100 60 0 0.0 2.0 0.01 0.03 0.03 94 1018.4
20260903084558 60 201 0.0 2.0 0.00 0.02 0.02 94 1018.6
20260903083056 60 0 0.0 2.0 0.00 0.02 0.02 94 1018.5
20260903081601 60 130 0.0 4.0 0.00 0.02 0.02 94 1018.2
20260903080101 60 189 0.0 3.0 0.01 0.02 0.02 94 1018.1
20260903074557 60 0 0.0 3.0 0.02 0.02 0.02 94 1018.4
20260903073057 60 74 0.0 4.0 0.02 0.02 0.02 94 1018.5
20260903071609 60 0 1.0 4.0 0.02 0.02 0.02 94 1018.7
20260903064556 60 0 0.0 3.0 0.00 0.00 0.00 93 1019.6
20260903063119 60 0 0.0 5.0 0.00 0.00 0.00 93 1019.7
20260903061559 59 0 0.0 5.0 0.00 0.00 0.00 93 1019.9
20260903060115 59 0 0.0 4.0 0.00 0.00 0.00 93 1020.0
20260903054555 59 111 0.0 3.0 0.00 0.00 0.00 93 1020.1
20260903053103 59 0 0.0 2.0 0.00 0.00 0.00 92 1020.3
20260903051559 59 0 0.0 5.0 0.00 0.00 0.00 92 1020.2
20260903050127 59 0 0.0 3.0 0.00 0.00 0.00 92 1020.3
20260903044555 59 0 0.0 4.0 0.00 0.00 0.00 92 1020.5
20260903043059 59 98 0.0 3.0 0.00 0.00 0.00 92 1020.5
20260903041600 59 0 0.0 2.0 0.00 0.00 0.00 92 1021.1
20260903040100 59 144 0.0 2.0 0.00 0.00 0.00 91 1021.3
20260903034553 59 0 0.0 1.0 0.00 0.00 0.00 91 1021.4
20260903033100 58 0 0.0 2.0 0.00 0.00 0.00 91 1021.4
20260903031557 58 0 0.0 3.0 0.00 0.00 0.00 91 1021.5
20260903030056 58 134 0.0 4.0 0.00 0.00 0.00 90 1021.4
20260903024600 58 128 1.0 4.0 0.00 0.00 0.00 90 1021.4
20260903023057 58 128 1.0 6.0 0.00 0.00 0.00 90 1021.7
20260903021556 58 198 1.0 5.0 0.00 0.00 0.00 90 1021.9
20260903020057 58 163 1.0 6.0 0.00 0.00 0.00 90 1021.9
20260903014603 58 248 0.0 5.0 0.00 0.00 0.00 89 1021.9
20260903013058 59 86 1.0 7.0 0.00 0.00 0.00 89 1021.9
20260903011608 59 124 1.0 6.0 0.00 0.00 0.00 89 1021.6
20260903010055 59 0 1.0 10.0 0.00 0.00 0.00 89 1022.0
20260903004553 59 132 1.0 6.0 0.00 0.00 0.00 89 1021.7
20260903003101 59 0 0.0 7.0 0.00 0.00 0.00 89 1021.8
20260903001557 59 126 1.0 7.0 0.00 0.00 0.00 88 1021.8
20260903000056 59 72 1.0 4.0 0.00 0.00 0.00 88 1021.8
20260902234554 59 116 0.0 3.0 0.00 0.00 0.00 87 1022.1
20260902233100 59 0 1.0 5.0 0.00 0.00 0.00 87 1022.4
20260902231604 60 170 0.0 3.0 0.00 0.00 0.00 85 1022.4
20260902230100 61 146 0.0 4.0 0.00 0.00 0.00 83 1022.4
20260902224601 61 198 1.0 4.0 0.00 0.00 0.00 81 1022.5
20260902223053 62 215 1.0 4.0 0.00 0.00 0.00 79 1023.0
20260902221558 62 0 1.0 5.0 0.00 0.00 0.00 78 1022.8
20260902220109 63 171 1.0 5.0 0.00 0.00 0.00 76 1022.8
20260902214610 63 194 1.0 6.0 0.00 0.00 0.00 73 1022.7
20260902213100 64 198 0.0 8.0 0.00 0.00 0.00 71 1022.8
20260902211604 65 115 1.0 7.0 0.00 0.00 0.00 70 1022.9
20260902204604 65 245 2.0 7.0 0.00 0.00 0.00 70 1023.3
20260902203059 66 0 3.0 7.0 0.00 0.00 0.00 68 1023.3
20260902201600 67 141 2.0 8.0 0.00 0.00 0.00 68 1023.1
20260902194600 67 88 3.0 9.0 0.00 0.00 0.00 69 1023.8
20260902193104 67 352 1.0 7.0 0.00 0.00 0.00 70 1023.9
20260902191557 66 231 3.0 7.0 0.00 0.00 0.00 70 1024.0
20260902190057 66 158 3.0 9.0 0.00 0.00 0.00 70 1024.2
20260902184600 66 159 3.0 10.0 0.00 0.00 0.00 70 1024.2
20260902183056 66 0 3.0 9.0 0.00 0.00 0.00 70 1024.1
20260902181602 67 203 2.0 7.0 0.00 0.00 0.00 70 1024.0
20260902180129 67 197 2.0 5.0 0.00 0.00 0.00 68 1024.2
20260902174554 68 61 3.0 9.0 0.00 0.00 0.00 67 1024.1
20260902173101 68 153 2.0 9.0 0.00 0.00 0.00 67 1023.9
20260902171558 70 86 3.0 10.0 0.00 0.00 0.00 63 1023.8
20260902170053 70 74 2.0 8.0 0.00 0.00 0.00 61 1023.8
20260902164601 70 107 2.0 9.0 0.00 0.00 0.00 62 1023.8
20260902163103 69 332 1.0 7.0 0.00 0.00 0.00 64 1024.2
20260902161557 70 184 1.0 10.0 0.00 0.00 0.00 61 1024.4
20260902160057 70 203 3.0 8.0 0.00 0.00 0.00 62 1024.4
20260902154557 70 153 2.0 13.0 0.00 0.00 0.00 60 1024.5
20260902153054 70 78 3.0 11.0 0.00 0.00 0.00 60 1024.5
20260902151552 69 233 3.0 8.0 0.00 0.00 0.00 62 1024.4
20260902150100 69 132 2.0 7.0 0.00 0.00 0.00 65 1024.3
20260902144558 69 182 2.0 7.0 0.00 0.00 0.00 64 1024.3
20260902143059 68 219 2.0 4.0 0.00 0.00 0.00 64 1024.4
20260902141549 68 0 1.0 7.0 0.00 0.00 0.00 66 1024.3
20260902140048 69 215 1.0 6.0 0.00 0.00 0.00 71 1024.0
20260902134607 67 96 2.0 7.0 0.00 0.00 0.00 74 1023.9
20260902133056 67 31 0.0 3.0 0.00 0.00 0.00 77 1024.1
20260902131602 65 62 2.0 6.0 0.00 0.00 0.00 81 1024.2
20260902124600 63 0 0.0 4.0 0.00 0.00 0.00 88 1024.1
20260902123058 61 0 0.0 3.0 0.00 0.00 0.00 91 1023.9
20260902121601 61 28 0.0 3.0 0.00 0.00 0.00 92 1024.3
20260902120059 60 0 0.0 3.0 0.00 0.00 0.00 93 1024.2
20260902114556 60 0 0.0 0.0 0.00 0.00 0.00 93 1024.2
20260902113104 60 0 0.0 3.0 0.00 0.00 0.00 93 1024.1
20260902111553 59 0 0.0 7.0 0.00 0.00 0.00 93 1024.0
20260902110058 59 0 0.0 4.0 0.00 0.00 0.00 93 1023.7
20260902104557 59 73 0.0 2.0 0.00 0.00 0.00 92 1023.7
20260902103055 59 130 0.0 5.0 0.00 0.00 0.00 92 1023.5
20260902101600 60 0 0.0 3.0 0.00 0.00 0.00 92 1023.5